Location: Darlington Observatory
(36.4817°N, 105.8156°W)
Time: 12:46:29
(UTC-06:00)

MOS 1 - Visible Passes

Search period start: 28 September 2016 00:00
Search period end: 08 October 2016 00:00
Orbit: 880 x 891 km, 99.3° (Epoch: 28 September)

Date Brightness Start Highest point End Pass type
(mag) Time Alt. Az. Time Alt. Az. Time Alt. Az.
28 Sep 7.4 06:00:09 10° NE 06:03:39 16° E 06:07:08 10° SE visible
28 Sep 6.2 19:08:50 10° SSW 19:14:00 36° W 19:19:12 10° NNW visible
29 Sep 7.4 05:58:34 10° NE 06:01:55 16° E 06:05:15 10° SE visible
29 Sep 6.1 19:07:04 10° SSW 19:12:16 37° W 19:17:32 10° NNW visible
30 Sep 7.4 05:57:00 10° ENE 06:00:11 15° E 06:03:20 10° SE visible
30 Sep 6.0 19:05:17 10° SSW 19:10:32 39° W 19:15:51 10° NNW visible
01 Oct 7.5 05:55:26 10° ENE 05:58:26 14° E 06:01:26 10° SE visible
01 Oct 5.9 19:03:31 10° SSW 19:08:49 40° W 19:14:09 10° NNW visible
02 Oct 7.5 05:53:53 10° ENE 05:56:42 14° E 05:59:30 10° ESE visible
02 Oct 5.9 19:01:45 10° S 19:07:05 42° W 19:12:28 10° NNW visible
03 Oct 7.6 05:52:21 10° ENE 05:54:58 13° E 05:57:34 10° ESE visible
03 Oct 5.8 18:59:59 10° S 19:05:22 44° W 19:10:47 10° NNW visible
04 Oct 7.6 05:50:51 10° ENE 05:53:13 13° E 05:55:35 10° ESE visible
04 Oct 5.7 18:58:13 10° S 19:03:38 46° W 19:09:05 10° NNW visible
05 Oct 7.7 05:49:22 10° ENE 05:51:29 12° E 05:53:35 10° ESE visible
06 Oct 7.8 05:47:57 10° ENE 05:49:45 11° E 05:51:32 10° ESE visible
06 Oct 5.5 18:54:43 10° S 19:00:11 49° W 19:05:43 10° NNW visible
07 Oct 7.9 05:46:36 10° ENE 05:48:00 11° E 05:49:24 10° ESE visible
07 Oct 5.4 18:52:58 10° S 18:58:28 51° W 19:04:02 10° NNW visible
